[[{"header":{"parameterUnit":"m.s-1","parameterCategory":1,"la1":30.2991,"la2":30.254,"lo1":-89.0895,"lo2":-89.0444,"dy":0.0017,"dx":0.0017,"nx":28,"ny":28,"refTime":"2025-06-04T21:00:00:Z","depth":0,"parameterNumber":2,"parameterNumberName":"U-component_of_WINDS"},"data":[0,0,0,0,0,0,0,0,0,0,0,0,0,0,0,0,0,0,0,0,0,0,0,0,0,0,0,0,0,0,0,0,0,0,0,0,0,0,0,0,0,0,0,0,0,0,0,0,0,0,0,0,0,0,0,0,0,0,1.0521,1.052,0,1.0477,1.0476,1.0476,1.0393,1.0391,1.039,1.0388,1.0345,1.0346,1.0346,0,0,0,0,0,0,0,0,0,0,0,0,0,1.0536,1.0536,1.0521,1.052,1.052,1.0477,1.0476,1.0476,1.0393,1.0391,1.0389,1.0388,1.0345,1.0346,1.0346,0,0,0,0,0,0,0,0,0,0,0,0,0,1.0515,1.0536,1.0521,1.0474,1.0469,1.0477,1.0476,1.0475,1.0394,1.0391,1.0389,1.0387,1.0345,1.0346,1.0346,1.0398,0,0,1.0348,1.0348,0,0,0,0,0,0,0,0,1.0516,1.0514,1.0481,1.0477,1.0472,1.0438,1.0466,1.0449,1.0394,1.0422,1.0388,1.0385,1.0378,1.0376,1.0373,1.0396,1.0394,1.0348,1.0348,1.0348,1.0348,0,0,0,0,0,0,0,1.0518,1.0516,1.0503,1.0481,1.0475,1.0455,1.0449,1.0462,1.0414,1.042,1.0414,1.0409,1.0375,1.0373,1.0371,1.0393,1.0348,1.0348,1.0349,1.0349,1.0455,1.0458,0,0,0,0,0,0,1.0526,1.0517,1.0505,1.0502,1.0488,1.0457,1.045,1.0451,1.0414,1.0406,1.0411,1.0406,1.0373,1.0371,1.037,1.0427,1.0348,1.0349,1.0349,1.0453,1.0456,1.0459,0,0,0,0,0,0,1.0526,1.0525,1.0507,1.0508,1.0504,1.0459,1.0461,1.0452,1.0449,1.0408,1.0399,1.0417,1.0371,1.0369,1.0391,1.0424,1.0349,1.035,1.045,1.0454,1.0457,1.0542,0,0,0,0,0,0,1.0527,1.0526,1.0545,1.0509,1.0504,1.0529,1.0463,1.0452,1.045,1.0442,1.0411,1.0404,1.0369,1.0391,1.0392,1.0423,1.035,1.0447,1.0452,1.0456,1.0536,1.0548,1.0559,0,0,0,0,0,1.0528,1.0571,1.0546,1.0545,1.0527,1.0531,1.0528,1.0486,1.0453,1.0471,1.0445,1.0405,1.0421,1.0394,1.0394,1.0427,1.0444,1.045,1.0456,1.0531,1.0546,1.0559,0,0,0,0,0,0,1.0613,1.0565,1.0537,1.057,1.0555,1.0517,1.0539,1.0503,1.0498,1.0491,1.044,1.0434,1.0463,1.0447,1.0418,1.0474,1.0426,1.0432,1.0483,1.0497,1.0508,1.0511,1.035,0,0,0,0,0,1.0635,1.0641,1.06,1.0633,1.0627,1.0585,1.0585,1.0554,1.0536,1.053,1.0505,1.049,1.0491,1.0493,1.0493,1.0534,1.0526,1.0556,1.0568,1.0577,1.0583,1.0603,1.0616,1.0477,1.0477,1.0477,0,0,1.0681,1.0656,1.0664,1.0649,1.0634,1.0642,1.058,1.0591,1.0597,1.0532,1.055,1.0532,1.0512,1.0544,1.0557,1.0532,1.0619,1.0584,1.0592,1.0593,1.061,1.0623,1.0635,1.0481,1.048,1.048,0,0,1.077,1.0752,1.0777,1.0763,1.074,1.0711,1.0718,1.0685,1.0669,1.0688,1.0639,1.0645,1.0649,1.0637,1.0631,1.0715,1.0678,1.0716,1.0775,1.0795,1.0806,1.0816,1.0845,1.0857,1.0722,1.0722,1.0723,0,1.0831,1.084,1.0794,1.0809,1.0804,1.0745,1.077,1.0758,1.0737,1.0735,1.0707,1.071,1.0693,1.0721,1.0741,1.0739,1.0744,1.0719,1.0808,1.0817,1.0825,1.0853,1.0864,1.0727,1.0727,1.0726,1.0726,0,1.0916,1.0923,1.0947,1.0926,1.0924,1.0944,1.0902,1.0905,1.0875,1.085,1.0869,1.0846,1.0839,1.0844,1.0814,1.0867,1.0852,1.0817,1.0768,1.0844,1.0869,1.088,1.0734,1.0732,1.0731,1.073,0,0,1.1056,1.101,1.1019,1.1009,1.098,1.0985,1.1002,1.0995,1.0999,1.0986,1.1,1.1004,1.0971,1.0965,1.0934,1.0952,1.1019,1.0914,1.0913,1.0934,1.1076,1.1102,1.1115,1.0995,1.0997,1.0998,1.1077,0,1.1137,1.1163,1.1123,1.1158,1.1165,1.1109,1.1124,1.1108,1.1085,1.1088,1.1062,1.1066,1.1023,1.1018,1.1034,1.1008,1.1047,1.1002,1.1007,1.1007,1.1013,1.1128,1.1156,1.1232,1.1087,1.1089,1.109,0,1.1236,1.1227,1.1263,1.1231,1.1232,1.1247,1.1236,1.124,1.1221,1.1203,1.1196,1.1159,1.1174,1.1127,1.1147,1.1117,1.1117,1.1105,1.1107,1.1105,1.1053,1.1129,1.1255,1.1266,1.1105,1.1104,1.1103,0,1.1333,1.1331,1.1352,1.1345,1.1309,1.132,1.1305,1.1284,1.1282,1.1274,1.1272,1.1266,1.1263,1.1259,1.1221,1.119,1.1247,1.1196,1.1232,1.1233,1.1246,1.1245,1.1373,1.1247,1.1247,1.1247,1.1247,0,1.1428,1.1452,1.1395,1.1408,1.1434,1.1387,1.1414,1.1394,1.1375,1.1384,1.1336,1.1345,1.1295,1.1299,1.127,1.1291,1.129,1.1276,1.1268,1.128,1.1282,1.1279,1.1273,1.125,1.1249,1.1249,1.1248,0,1.1541,1.1504,1.1523,1.1487,1.1478,1.1499,1.1468,1.1479,1.1453,1.1464,1.1464,1.1424,1.1426,1.1388,1.1383,1.1364,1.1398,1.1381,1.1404,1.1398,1.1436,1.1433,1.1566,1.1581,1.1446,1.1448,1.1449,0,1.1603,1.162,1.1586,1.1588,1.1575,1.1579,1.1577,1.1532,1.1532,1.1512,1.1525,1.1523,1.1519,1.1525,1.1496,1.1492,1.1474,1.1521,1.1473,1.1484,1.1474,1.1473,1.1474,1.1531,1.1532,1.1534,1.1535,0,1.1718,1.1699,1.1697,1.1689,1.1687,1.1679,1.1667,1.1672,1.1623,1.1625,1.1626,1.1623,1.1618,1.1617,1.1607,1.1593,1.1556,1.155,1.1558,1.157,1.1583,1.1576,1.1431,1.1547,1.1546,1.1545,1.1544,1.1544,1.1807,1.1819,1.1797,1.1796,1.1783,1.1774,1.1782,1.1757,1.1757,1.1748,1.1722,1.1728,1.1709,1.1692,1.1681,1.1685,1.1662,1.1674,1.1677,1.168,1.1687,1.1583,1.1683,1.1683,1.1682,1.1682,1.1682,0,1.1918,1.1901,1.1901,1.1886,1.1886,1.1851,1.1837,1.1839,1.1845,1.1829,1.1826,1.1828,1.1827,1.1797,1.1792,1.1801,1.1785,1.1802,1.18,1.1798,1.1708,1.1701,1.1815,1.1815,1.1815,1.1815,1.1815,1.1815,1.1976,1.1995,1.1974,1.1986,1.1969,1.1973,1.1968,1.1959,1.1947,1.195,1.1949,1.1929,1.1909,1.1902,1.1899,1.1891,1.1891,1.1914,1.19,1.1817,1.1804,1.1791,1.1785,1.1915,1.1915,1.1989,1.1989,1.199]},{"header":{"parameterUnit":"m.s-1","parameterCategory":1,"la1":30.2991,"la2":30.254,"lo1":-89.0895,"lo2":-89.0444,"dy":0.0017,"dx":0.0017,"nx":28,"ny":28,"refTime":"2025-06-04T21:00:00:Z","depth":0,"parameterNumber":3,"parameterNumberName":"V-component_of_WINDS"},"data":[0,0,0,0,0,0,0,0,0,0,0,0,0,0,0,0,0,0,0,0,0,0,0,0,0,0,0,0,0,0,0,0,0,0,0,0,0,0,0,0,0,0,0,0,0,0,0,0,0,0,0,0,0,0,0,0,0,0,2.2426,2.2426,0,2.2444,2.2444,2.2444,2.2405,2.2404,2.2403,2.2402,2.2417,2.2419,2.242,0,0,0,0,0,0,0,0,0,0,0,0,0,2.2356,2.2357,2.2426,2.2426,2.2427,2.2444,2.2444,2.2444,2.2406,2.2404,2.2403,2.2401,2.2417,2.2418,2.242,0,0,0,0,0,0,0,0,0,0,0,0,0,2.2381,2.2358,2.2426,2.2409,2.2408,2.2444,2.2444,2.2444,2.2406,2.2404,2.2402,2.24,2.2416,2.2418,2.2421,2.2472,0,0,2.2428,2.2429,0,0,0,0,0,0,0,0,2.238,2.2384,2.2412,2.2411,2.2409,2.2421,2.2425,2.2454,2.2406,2.2407,2.2402,2.24,2.242,2.2421,2.2429,2.2473,2.2474,2.2428,2.2429,2.243,2.2431,0,0,0,0,0,0,0,2.2378,2.2383,2.2433,2.2412,2.2411,2.24,2.2402,2.243,2.2423,2.2407,2.2404,2.2407,2.2418,2.2427,2.2429,2.2474,2.2428,2.243,2.2431,2.2432,2.256,2.2562,0,0,0,0,0,0,2.2379,2.2382,2.2432,2.2434,2.239,2.2403,2.2405,2.2419,2.2423,2.2422,2.2408,2.2405,2.2424,2.2426,2.2429,2.2489,2.243,2.2433,2.2434,2.2558,2.2561,2.2563,0,0,0,0,0,0,2.2378,2.2384,2.2432,2.2407,2.2412,2.2406,2.2422,2.242,2.2428,2.2424,2.2422,2.2418,2.2422,2.2426,2.2462,2.2489,2.2434,2.2436,2.2556,2.2559,2.2562,2.261,0,0,0,0,0,0,2.2376,2.2384,2.2404,2.2408,2.2414,2.2465,2.2424,2.2422,2.2433,2.2428,2.2433,2.2432,2.2421,2.2459,2.2464,2.2491,2.2438,2.2554,2.2557,2.2561,2.2606,2.2615,2.2622,0,0,0,0,0,2.2373,2.2416,2.2405,2.2411,2.2439,2.2467,2.247,2.2458,2.2435,2.2455,2.2452,2.2432,2.2486,2.2463,2.2469,2.2497,2.2552,2.2556,2.2561,2.2603,2.2613,2.2622,0,0,0,0,0,0,2.2415,2.2416,2.2404,2.245,2.2459,2.246,2.2485,2.2469,2.2484,2.2479,2.2462,2.2463,2.2502,2.2503,2.2477,2.2547,2.2515,2.2521,2.2545,2.2554,2.2562,2.256,2.2439,0,0,0,0,0,2.2429,2.2453,2.2453,2.2493,2.2498,2.2491,2.2502,2.2492,2.25,2.2503,2.2503,2.2511,2.253,2.2542,2.2559,2.2607,2.2606,2.2629,2.2637,2.2643,2.2648,2.2672,2.2682,2.2578,2.2578,2.2578,0,0,2.2459,2.2463,2.2479,2.2501,2.2507,2.253,2.2494,2.252,2.2537,2.2507,2.2541,2.2541,2.2549,2.2591,2.2609,2.2593,2.2677,2.2649,2.2654,2.2655,2.2678,2.2688,2.2697,2.2581,2.258,2.258,0,0,2.2526,2.2532,2.2565,2.2572,2.2581,2.2576,2.2585,2.2589,2.2588,2.2622,2.26,2.2619,2.2652,2.2658,2.2665,2.2735,2.2716,2.2741,2.2781,2.2805,2.2813,2.282,2.2844,2.2853,2.2746,2.2746,2.2746,0,2.2561,2.2597,2.2584,2.2613,2.2623,2.2598,2.2631,2.2638,2.2652,2.2659,2.2641,2.2681,2.2685,2.2727,2.2744,2.2751,2.2759,2.274,2.2813,2.282,2.2827,2.2849,2.2858,2.2749,2.2749,2.2748,2.2748,0,2.264,2.2665,2.2691,2.2706,2.2719,2.275,2.2741,2.2756,2.2745,2.2741,2.2776,2.2779,2.2796,2.2806,2.2795,2.2847,2.2836,2.2816,2.2783,2.284,2.286,2.2869,2.2753,2.2752,2.2751,2.2751,0,0,2.2731,2.274,2.275,2.2756,2.2765,2.2783,2.2813,2.283,2.2843,2.2853,2.2877,2.2905,2.2887,2.2895,2.2885,2.2906,2.2959,2.2883,2.2883,2.2896,2.3016,2.303,2.304,2.2948,2.2949,2.2951,2.3015,0,2.2796,2.2848,2.2838,2.2887,2.2909,2.2886,2.2911,2.2919,2.2917,2.2935,2.2932,2.2952,2.2927,2.2931,2.2952,2.2949,2.2983,2.2944,2.2968,2.2969,2.2966,2.3051,2.3066,2.3126,2.3023,2.3024,2.3025,0,2.2879,2.2894,2.2946,2.2951,2.296,2.2983,2.2998,2.3016,2.3023,2.302,2.303,2.3016,2.3044,2.3012,2.305,2.3023,2.3033,2.3033,2.3035,2.3035,2.3,2.3053,2.3145,2.3154,2.3038,2.3037,2.3036,0,2.2939,2.2972,2.3007,2.3014,2.3021,2.3037,2.3041,2.3047,2.3058,2.3071,2.3078,2.3094,2.3102,2.3115,2.3105,2.3083,2.3144,2.3111,2.3141,2.3141,2.3154,2.3153,2.3248,2.3162,2.3162,2.3162,2.3161,0,2.3012,2.3044,2.3035,2.3056,2.3092,2.308,2.3115,2.3115,2.3121,2.3142,2.3123,2.3142,2.3128,2.3146,2.3139,2.3171,2.3175,2.3172,2.317,2.3173,2.3174,2.3178,2.3173,2.3164,2.3163,2.3163,2.3163,0,2.3085,2.308,2.3116,2.3121,2.3122,2.3148,2.3151,2.3171,2.3167,2.3194,2.3199,2.3194,2.3214,2.3206,2.3227,2.3222,2.3262,2.3255,2.326,2.3258,2.3288,2.3284,2.3388,2.34,2.3307,2.3308,2.3309,0,2.3131,2.3156,2.3163,2.3176,2.3181,2.3202,2.3213,2.3202,2.3215,2.3226,2.3244,2.3263,2.3277,2.3311,2.3308,2.3324,2.3316,2.3351,2.3318,2.3321,2.3315,2.3314,2.3315,2.3357,2.3359,2.3359,2.336,0,2.3213,2.321,2.3227,2.3245,2.3259,2.3272,2.3283,2.3294,2.3284,2.3299,2.332,2.3331,2.3354,2.3372,2.3387,2.3389,2.3373,2.3371,2.3378,2.3382,2.3383,2.3382,2.3277,2.3368,2.3367,2.3367,2.3366,2.3366,2.3273,2.3294,2.3302,2.3323,2.333,2.3341,2.3359,2.3359,2.3377,2.3394,2.3387,2.3411,2.3418,2.3435,2.344,2.3458,2.3444,2.3456,2.3458,2.3461,2.3464,2.3382,2.3461,2.3461,2.3461,2.346,2.346,0,2.3353,2.3358,2.3377,2.3393,2.3409,2.3394,2.3405,2.3419,2.3441,2.345,2.3465,2.3489,2.3507,2.3506,2.3522,2.3537,2.353,2.3542,2.354,2.354,2.3476,2.3468,2.3547,2.3547,2.3547,2.3547,2.3547,2.3547,2.3397,2.3431,2.3428,2.3465,2.3469,2.3494,2.3501,2.3511,2.3517,2.3545,2.3561,2.3561,2.3565,2.3582,2.3597,2.3597,2.3603,2.3617,2.3614,2.3554,2.3545,2.3537,2.3528,2.3619,2.3619,2.3676,2.3677,2.3677]}]]